#timestamp,LO_Frequency,Hit,StdDev 
1628424015.9,286046999.0,N
1628424035.7,286046998.7,N
1628424055.6,286046998.8,N
1628424075.4,286046998.2,N
1628424095.2,286046998.9,N
1628424115.1,286047001.0,N
1628424116.0,286047001.0,N
1628424135.8,286047001.1,N
1628424155.6,286046998.2,N
1628424175.5,286046998.2,N
1628424195.3,286046998.3,N
1628424215.2,286047000.8,N
1628424235.9,286047000.0,N
1628424255.7,286046998.3,N
1628424275.6,286046998.7,N
1628424295.4,286047000.3,N
1628424315.2,286047000.7,N
1628424335.1,286046998.1,N
1628424336.0,286046998.1,N
1628424355.8,286046998.4,N
1628424375.7,286047001.2,N
1628424395.5,286047001.2,N
1628424415.3,286047001.1,N
1628424435.2,286047000.7,N
1628424455.0,286047001.1,N
1628424455.9,286047001.1,N
1628424475.7,286046998.3,N
1628424495.6,286046999.3,N
1628424515.4,286046999.1,N
1628424535.3,286046998.4,N
1628424555.1,286046999.0,N
1628424556.0,286046999.0,N
1628424575.8,286046998.1,N
1628424595.7,286046998.7,N
1628424615.5,286046999.2,N
1628424635.3,286046999.2,N
1628424655.2,286046998.7,N
1628424675.0,286046999.4,N
1628424675.9,286046999.4,N
1628424695.8,286046998.6,N
1628424715.6,286047000.8,N
1628424735.4,286047000.4,N
1628424755.3,286047002.4,N
1628424775.1,286047002.2,N
1628424795.9,286047002.5,N
1628424815.7,286047002.0,N
1628424835.5,286047002.3,N
1628424855.4,286047000.1,N
1628424875.2,286047000.9,N
1628424895.0,286047004.4,Y
1628424895.9,286047004.4,P
1628424915.8,286047000.1,N
1628424935.6,286047002.4,N
1628424955.5,286047002.4,N
1628424975.3,286046999.7,N
1628424995.1,286047002.7,N
1628425015.9,286047002.1,N
1628425035.7,286047002.6,N
1628425055.5,286047002.2,N
1628425075.4,286047002.6,N
1628425095.2,286047002.0,N
1628425115.1,286047002.4,N
1628425116.0,286047002.4,N
1628425135.8,286046999.9,N
1628425155.6,286046999.9,N
1628425175.5,286047000.2,N
1628425195.3,286047000.3,N
1628425215.1,286047002.8,N
1628425235.9,286047002.4,N
1628425255.7,286047000.1,N
1628425275.6,286047002.5,N
1628425295.4,286046999.8,N
1628425315.2,286046999.7,N
1628425335.1,286047000.1,N
1628425336.0,286047000.1,N
1628425355.8,286047000.2,N
1628425375.6,286047002.7,N
1628425395.5,286047002.3,N
1628425415.3,286046999.8,N
1628425435.2,286047000.7,N
1628425455.9,286046998.2,N
1628425475.7,286047000.8,N
1628425495.6,286046998.2,N
1628425515.4,286047000.2,N
1628425535.2,286046999.2,N
1628425555.1,286046998.0,N
1628425556.0,286046998.0,N
1628425575.8,286046995.8,N
1628425595.7,286046997.9,N
1628425615.5,286046999.1,N
1628425635.3,286046999.6,N
1628425655.2,286046996.7,N
1628425675.0,286046996.5,N
1628425675.9,286046996.5,N
1628425695.7,286046999.4,N
1628425715.6,286046999.3,N
1628425735.4,286046999.3,N
1628425755.3,286046998.4,N
1628425775.1,286046999.4,N
1628425776.0,286046999.4,N
1628425795.8,286046998.9,N
1628425815.7,286046998.3,N
1628425835.5,286046998.6,N
1628425855.3,286046998.5,N
1628425875.2,286046998.3,N
1628425895.0,286047001.0,N
1628425895.9,286047001.0,N
1628425915.8,286047000.9,N
1628425935.6,286047002.8,N
1628425955.4,286047001.9,N
1628425975.3,286047001.4,N
1628425995.1,286047003.5,N
1628426015.9,286047005.4,Y
1628426035.7,286047005.9,P
1628426055.5,286047004.8,N
1628426075.4,286047003.3,N
1628426095.2,286047004.0,N
1628426115.0,286047001.8,N
1628426115.9,286047001.8,N
1628426135.8,286047002.6,N
1628426155.6,286047002.3,N
1628426175.5,286047000.5,N
1628426195.3,286047002.5,N
1628426215.1,286047001.8,N
1628426235.9,286047002.3,N
1628426255.7,286047002.3,N
1628426275.5,286047001.1,N
1628426295.4,286047001.1,N
1628426315.2,286047001.0,N
1628426335.1,286046998.6,N
1628426336.0,286046998.6,N
1628426355.8,286046999.5,N
1628426375.6,286046996.5,N
1628426395.5,286046999.5,N
1628426415.3,286046997.0,N
1628426435.1,286046999.3,N
1628426455.9,286046996.5,N
1628426475.7,286046996.9,N
1628426495.5,286046997.5,N
1628426515.4,286046997.6,N
1628426535.2,286046997.9,N
1628426555.1,286046998.9,N
1628426556.0,286046998.9,N
1628426575.8,286046998.6,N
1628426595.7,286046999.3,N
1628426615.5,286046999.6,N
1628426635.3,286046999.3,N
1628426655.2,286047000.4,N
1628426675.0,286047001.1,N
1628426675.9,286047001.1,N
1628426695.7,286047000.2,N
1628426715.6,286047000.4,N
1628426735.4,286047001.1,N
1628426755.3,286047002.6,N
1628426775.1,286047002.6,N
1628426776.0,286047002.6,N
1628426795.8,286047002.8,N
1628426815.7,286047001.6,N
1628426835.5,286047002.2,N
1628426855.3,286047001.5,N
1628426875.2,286047002.3,N
1628426895.0,286047002.0,N
1628426895.9,286047002.0,N
1628426915.8,286047001.9,N
1628426935.6,286047001.8,N
1628426955.4,286047004.3,N
1628426975.3,286047001.7,N
1628426995.1,286047001.9,N
1628427015.9,286047002.2,N
1628427035.7,286047002.0,N
1628427055.5,286047000.6,N
1628427075.4,286047000.3,N
1628427095.2,286047001.6,N
1628427115.0,286047004.2,Y
1628427115.9,286047004.2,P
1628427135.8,286047002.5,N
1628427155.6,286047002.7,N
1628427175.5,286047000.2,N
1628427195.3,286047001.9,N
1628427215.1,286046999.7,N
1628427235.9,286046999.7,N
1628427255.7,286047000.6,N
1628427275.6,286047001.7,N
1628427295.4,286047002.5,N
1628427315.2,286047000.1,N
1628427335.1,286047000.5,N
1628427336.0,286047000.5,N
1628427355.8,286047002.7,N
1628427375.6,286047002.7,N
1628427395.5,286047003.9,N
1628427415.3,286047003.7,N
1628427435.2,286047001.8,N
1628427455.9,286047002.4,N
1628427475.7,286047001.4,N
1628427495.6,286047002.5,N
1628427515.4,286047000.6,N
1628427535.2,286047000.3,N
1628427555.1,286046999.8,N
1628427556.0,286046999.8,N
1628427575.8,286047000.2,N
1628427595.7,286047000.4,N
